"2009-05-21 00:00:00",904633,5.832,242.7,3.163,0.485,19.96,109.6557,24.01,25.04,14.19,0,111.2,13.11,24.85,204.7
"2009-05-21 00:00:30",904634,5.075,243.9,3.14,0.31,19.92,109.6378,23.96,25.03,14.21,0,111.2,13.11,24.80,205.9
"2009-05-21 00:01:00",904635,4.468,245.1,3.248,0.23,19.86,109.6305,23.95,24.99,14.17,0,111.2,13.12,24.78,207.1
"2009-05-21 00:01:30",904636,4.724,243.2,4.798,0.397,19.82,109.6296,23.94,24.99,14.29,0,111.2,13.12,24.78,205.2
"2009-05-21 00:02:00",904637,5.787,235,6.176,0.457,19.86,109.6293,23.94,24.98,14.34,0,111.2,13.12,24.78,197.0
"2009-05-21 00:02:30",904638,5.853,239.4,1.66,0.255,19.87,109.6251,23.93,24.97,14.47,0,111.2,13.12,24.77,201.4
"2009-05-21 00:03:00",904639,6.404,237.2,4.11,0.396,19.92,109.6105,23.89,24.96,14.57,0,111.2,13.12,24.73,199.2
"2009-05-21 00:03:30",904640,6.181,233.8,2.661,0.312,19.97,109.6044,23.88,24.95,14.49,0,111.2,13.12,24.71,195.8
"2009-05-21 00:04:00",904641,5.951,237.1,4.01,0.407,19.94,109.6002,23.87,24.94,14.21,0,111.2,13.12,24.70,199.1
"2009-05-21 00:04:30",904642,6.849,242.4,5.03,0.432,20,109.596,23.86,24.91,13.83,0,111.2,13.12,24.69,204.4
"2009-05-21 00:05:00",904643,6.681,250.2,3.984,0.331,20.03,109.596,23.86,24.91,13.73,0,111.2,13.12,24.69,212.2
"2009-05-21 00:05:30",904644,5.971,241.4,2.735,0.452,20.01,109.596,23.86,24.91,14.01,0,111.2,13.12,24.69,203.4
"2009-05-21 00:06:00",904645,5.945,234.8,4.878,0.428,20.02,109.596,23.86,24.88,14.15,0,111.2,13.12,24.69,196.8
"2009-05-21 00:06:30",904646,6.471,253.6,4.356,0.31,20.09,109.5966,23.86,24.88,13.67,0,111.2,13.12,24.69,215.6
"2009-05-21 00:07:00",904647,5.387,250.2,3.139,0.497,20.06,109.5978,23.86,24.88,13.45,0,111.2,13.12,24.70,212.2
"2009-05-21 00:07:30",904648,6.692,261.7,5.621,0.514,20.02,109.5982,23.86,24.89,13.4,0,111.2,13.12,24.70,223.7
"2009-05-21 00:08:00",904649,6.428,253.4,3.366,0.438,20,109.5973,23.86,24.88,13.55,0,111.2,13.12,24.70,215.4
"2009-05-21 00:08:30",904650,6.181,254.3,2.391,0.306,19.99,109.5913,23.84,24.86,14.22,0,111.2,13.12,24.68,216.3
"2009-05-21 00:09:00",904651,5.725,252.6,1.999,0.186,20,109.5903,23.84,24.88,14.38,0,111.2,13.12,24.68,214.6
"2009-05-21 00:09:30",904652,5.924,247,4.269,0.451,20.01,109.5913,23.84,24.86,14.22,0,111.2,13.12,24.68,209.0
"2009-05-21 00:10:00",904653,6.759,235,5.27,0.249,20.01,109.5931,23.85,24.85,14.38,0,111.2,13.12,24.68,197.0
"2009-05-21 00:10:30",904654,6.788,245.2,8.03,0.352,20.16,109.5919,23.85,24.87,13.96,0,111.2,13.12,24.68,207.2
"2009-05-21 00:11:00",904655,6.006,257.5,4.36,0.554,20.15,109.5956,23.86,24.84,13.81,0,111.2,13.12,24.69,219.5
"2009-05-21 00:11:30",904656,5.849,249,3.644,0.317,20.11,109.5969,23.86,24.86,13.74,0,111.2,13.12,24.69,211.0
"2009-05-21 00:12:00",904657,6.416,243.5,1.949,0.493,19.94,109.5981,23.86,24.84,13.84,0,111.2,13.12,24.70,205.5
"2009-05-21 00:12:30",904658,6.484,245.1,2.539,0.337,20,109.5978,23.86,24.84,13.73,0,111.2,13.12,24.70,207.1
"2009-05-21 00:13:00",904659,6.93,239,3.074,0.906,19.96,109.5978,23.86,24.85,13.87,0,111.2,13.12,24.70,201.0
"2009-05-21 00:13:30",904660,8.27,249.8,4.093,0.758,20.05,109.5982,23.86,24.86,14,0,111.2,13.12,24.70,211.8
"2009-05-21 00:14:00",904661,7.744,260.1,2.659,0.477,20.08,109.5983,23.86,24.85,14.1,0,111.2,13.12,24.70,222.1
"2009-05-21 00:14:30",904662,6.584,265.3,8.12,1.055,20.05,109.5975,23.86,24.85,14.1,0,111.2,13.12,24.70,227.3
"2009-05-21 00:15:00",904663,5.02,249.2,3.277,0.247,19.98,109.5975,23.86,24.83,13.91,0,111.2,13.12,24.70,211.2
"2009-05-21 00:15:30",904664,5.625,240.6,4.636,0.341,19.95,109.5954,23.85,24.85,13.97,0,111.2,13.12,24.69,202.6
"2009-05-21 00:16:00",904665,6.876,233.4,4.614,0.342,20.04,109.5981,23.86,24.84,14.31,0,111.2,13.12,24.70,195.4
"2009-05-21 00:16:30",904666,7.134,233.3,2.827,0.364,20.09,109.5975,23.86,24.84,13.72,0,111.2,13.12,24.70,195.3
"2009-05-21 00:17:00",904667,7.879,229,1.892,0.311,20.06,109.6007,23.87,24.85,14.38,0,111.2,13.12,24.70,191.0
"2009-05-21 00:17:30",904668,7.611,230.4,2.085,0.376,20.06,109.6001,23.87,24.86,14.45,0,111.2,13.12,24.70,192.4
"2009-05-21 00:18:00",904669,7.582,233.3,2.667,0.282,20.05,109.602,23.87,24.84,15.12,0,111.2,13.12,24.71,195.3
"2009-05-21 00:18:30",904670,7.732,237.9,2.74,0.19,19.99,109.6006,23.87,24.86,15.11,0,111.2,13.12,24.70,199.9
"2009-05-21 00:19:00",904671,7.96,239.8,1.848,0.254,20.04,109.5995,23.87,24.85,14.54,0,111.2,13.12,24.70,201.8
"2009-05-21 00:19:30",904672,7.84,240.9,2.09,0.19,19.97,109.5997,23.87,24.84,14.48,0,111.2,13.12,24.70,202.9
"2009-05-21 00:20:00",904673,6.889,247.7,3.771,0.307,20,109.5992,23.86,24.84,13.93,0,111.2,13.12,24.70,209.7
"2009-05-21 00:20:30",904674,6.252,244,3.043,0.191,19.9,109.5997,23.87,24.85,13.86,0,111.2,13.12,24.70,206.0
"2009-05-21 00:21:00",904675,6.889,252.7,1.905,0.373,19.93,109.6026,23.87,24.85,13.88,0,111.2,13.12,24.71,214.7
"2009-05-21 00:21:30",904676,6.749,249.6,6.767,0.194,19.97,109.6042,23.88,24.86,13.54,0,111.2,13.12,24.71,211.6
"2009-05-21 00:22:00",904677,6.731,239.8,2.658,0.287,19.91,109.6065,23.88,24.84,13.35,0,111.2,13.12,24.72,201.8
"2009-05-21 00:22:30",904678,6.402,240.6,2.74,0.234,19.88,109.6087,23.89,24.87,14.28,0,111.2,13.12,24.72,202.6
"2009-05-21 00:23:00",904679,6.056,240.7,1.287,0.235,19.86,109.6143,23.9,24.87,14.88,0,111.2,13.12,24.74,202.7
"2009-05-21 00:23:30",904680,6.164,245,2.581,0.15,19.85,109.623,23.93,24.87,14.65,0,111.2,13.12,24.76,207.0
"2009-05-21 00:24:00",904681,5.979,248.7,2.258,0.176,19.92,109.6312,23.95,24.88,14.59,0,111.2,13.12,24.78,210.7
"2009-05-21 00:24:30",904682,5.648,244.5,2.521,0.171,19.98,109.6326,23.95,24.88,14.28,0,111.2,13.12,24.79,206.5
"2009-05-21 00:25:00",904683,4.824,246.3,4.571,0.21,19.95,109.6329,23.95,24.88,13.9,0,111.2,13.12,24.79,208.3
"2009-05-21 00:25:30",904684,5.162,253.9,2.726,0.244,19.89,109.6329,23.95,24.9,13.97,0,111.2,13.12,24.79,215.9
"2009-05-21 00:26:00",904685,5.31,255,2.859,0.179,19.93,109.6329,23.95,24.9,14.01,0,111.1,13.12,24.79,217.0
"2009-05-21 00:26:30",904686,5.844,248.3,3.254,0.407,20,109.6326,23.95,24.9,13.75,0,111.2,13.12,24.79,210.3
"2009-05-21 00:27:00",904687,6.068,248.7,2.767,0.286,20.03,109.6329,23.95,24.91,13.83,0,111.1,13.12,24.79,210.7
"2009-05-21 00:27:30",904688,5.614,246.2,1.216,0.102,19.97,109.6329,23.95,24.92,13.87,0,111.2,13.12,24.79,208.2
"2009-05-21 00:28:00",904689,6.152,245.4,1.932,0.186,19.87,109.6326,23.95,24.93,13.92,0,111.1,13.12,24.79,207.4
"2009-05-21 00:28:30",904690,6.221,245.6,1.58,0.147,19.8,109.6326,23.95,24.91,14.05,0,111.2,13.12,24.79,207.6
"2009-05-21 00:29:00",904691,6.107,243.2,2.004,0.111,19.82,109.6329,23.95,24.92,14.02,0,111.2,13.12,24.79,205.2
"2009-05-21 00:29:30",904692,6.505,242.3,2.127,0.368,19.89,109.6323,23.95,24.92,13.95,0,111.1,13.12,24.79,204.3
"2009-05-21 00:30:00",904693,7.07,243,2.502,0.211,19.89,109.6303,23.94,24.91,13.93,0,111.2,13.12,24.78,205.0
"2009-05-21 00:30:30",904694,7.482,242.2,2.951,0.307,19.88,109.6289,23.94,24.91,13.87,0,111.2,13.12,24.78,204.2
"2009-05-21 00:31:00",904695,5.793,252.9,4.319,0.663,19.86,109.6281,23.94,24.93,13.7,0,111.2,13.12,24.77,214.9
"2009-05-21 00:31:30",904696,5.147,248.2,8.71,0.27,19.79,109.6301,23.94,24.92,13.69,0,111.1,13.12,24.78,210.2
"2009-05-21 00:32:00",904697,5.007,244.1,2.951,0.3,19.79,109.6284,23.94,24.92,13.84,0,111.1,13.12,24.78,206.1
"2009-05-21 00:32:30",904698,4.893,240.2,1.56,0.164,19.79,109.6287,23.94,24.93,13.94,0,111.1,13.13,24.78,202.2
"2009-05-21 00:33:00",904699,5.375,232.8,6.12,0.265,19.82,109.6309,23.95,24.91,13.97,0,111.1,13.12,24.78,194.8
"2009-05-21 00:33:30",904700,5.451,230.8,1.224,0.162,19.88,109.6317,23.95,24.92,14.15,0,111.2,13.12,24.78,192.8
"2009-05-21 00:34:00",904701,5.433,230,2.109,0.158,20,109.6323,23.95,24.92,14.01,0,111.1,13.12,24.79,192.0
"2009-05-21 00:34:30",904702,5.428,232.7,3.374,0.452,20.15,109.6329,23.95,24.92,14.06,0,111.1,13.12,24.79,194.7
"2009-05-21 00:35:00",904703,5.909,236.2,1.852,0.132,20.24,109.632,23.95,24.92,14.25,0,111.1,13.12,24.78,198.2
"2009-05-21 00:35:30",904704,5.732,239.4,2.166,0.205,20.26,109.6309,23.95,24.92,14.36,0,111.1,13.12,24.78,201.4
"2009-05-21 00:36:00",904705,5.852,236.1,2.736,0.27,20.27,109.6222,23.92,24.93,14.51,0,111.1,13.12,24.76,198.1
"2009-05-21 00:36:30",904706,6.12,238.5,2.902,0.181,20.21,109.6146,23.9,24.92,14.53,0,111.1,13.12,24.74,200.5
"2009-05-21 00:37:00",904707,6.092,240.6,2.945,0.137,20.21,109.6079,23.89,24.92,15.01,0,111.1,13.12,24.72,202.6
"2009-05-21 00:37:30",904708,5.523,238.2,5.216,0.261,20.13,109.6042,23.88,24.92,14.6,0,111.1,13.13,24.71,200.2
"2009-05-21 00:38:00",904709,5.395,232.7,2.968,0.167,20.08,109.6009,23.87,24.9,14.58,0,111.1,13.13,24.70,194.7
"2009-05-21 00:38:30",904710,5.373,237.6,2.183,0.148,20.07,109.5992,23.86,24.91,14.5,0,111.1,13.13,24.70,199.6
"2009-05-21 00:39:00",904711,4.855,237.7,2.582,0.134,20.14,109.5995,23.87,24.89,14.47,0,111.1,13.13,24.70,199.7
"2009-05-21 00:39:30",904712,5.171,236.2,3.744,0.156,20.27,109.5995,23.87,24.88,14.49,0,111.1,13.13,24.70,198.2
"2009-05-21 00:40:00",904713,4.893,238.9,2.304,0.19,20.32,109.6004,23.87,24.89,14.57,0,111.1,13.13,24.70,200.9
"2009-05-21 00:40:30",904714,4.924,245.7,4.377,0.18,20.32,109.6004,23.87,24.88,14.63,0,111.1,13.13,24.70,207.7
"2009-05-21 00:41:00",904715,4.888,247.2,3.384,0.19,20.29,109.6026,23.87,24.89,14.93,0,111.1,13.13,24.71,209.2
"2009-05-21 00:41:30",904716,4.898,251.2,2.96,0.269,20.2,109.5968,23.86,24.89,14.96,0,111.1,13.13,24.69,213.2
"2009-05-21 00:42:00",904717,4.618,251.8,4.591,0.262,20.14,109.5918,23.85,24.86,14.78,0,111.1,13.13,24.68,213.8
"2009-05-21 00:42:30",904718,4.738,250.9,2.667,0.11,20.1,109.5893,23.84,24.86,14.29,0,111.1,13.13,24.67,212.9
"2009-05-21 00:43:00",904719,4.7,250.2,0.735,0.088,20.09,109.5813,23.82,24.85,14.25,0,111.1,13.13,24.65,212.2
"2009-05-21 00:43:30",904720,4.437,246.4,1.515,0.083,20.2,109.5825,23.82,24.86,14.25,0,111.1,13.13,24.66,208.4
"2009-05-21 00:44:00",904721,4.355,246,2.007,0.121,20.27,109.5828,23.82,24.85,14.28,0,111.1,13.13,24.66,208.0
"2009-05-21 00:44:30",904722,4.002,247.4,3.345,0.184,20.26,109.5854,23.83,24.83,14.4,0,111.1,13.13,24.66,209.4
"2009-05-21 00:45:00",904723,3.986,246.1,2.055,0.066,20.26,109.5897,23.84,24.85,14.35,0,111.1,13.13,24.68,208.1
"2009-05-21 00:45:30",904724,3.63,246.4,1.809,0.174,20.18,109.5893,23.84,24.85,14.27,0,111.1,13.13,24.67,208.4
"2009-05-21 00:46:00",904725,4.011,250,2.212,0.226,20.16,109.5927,23.85,24.84,14.26,0,111.1,13.13,24.68,212.0
"2009-05-21 00:46:30",904726,4.135,252.4,2.097,0.127,20.23,109.591,23.84,24.85,14.27,0,111.1,13.13,24.68,214.4
"2009-05-21 00:47:00",904727,4.27,246.2,2.977,0.153,20.26,109.5923,23.85,24.85,14.2,0,111.1,13.12,24.68,208.2
"2009-05-21 00:47:30",904728,4.128,246.5,1.032,0.276,20.3,109.5926,23.85,24.83,14.16,0,111.1,13.12,24.68,208.5
"2009-05-21 00:48:00",904729,4.411,243.4,2.668,0.17,20.3,109.5932,23.85,24.84,14.23,0,111.1,13.12,24.68,205.4
"2009-05-21 00:48:30",904730,4.34,246.5,2.082,0.194,20.34,109.5879,23.84,24.84,14.27,0,111.1,13.12,24.67,208.5
"2009-05-21 00:49:00",904731,3.69,246.3,2.553,0.138,20.37,109.5646,23.78,24.81,14.32,0,111.1,13.12,24.61,208.3
"2009-05-21 00:49:30",904732,3.379,246.6,1.625,0.17,20.38,109.5584,23.76,24.77,14.32,0,111.1,13.12,24.59,208.6
"2009-05-21 00:50:00",904733,3.393,249.1,1.929,0.207,20.4,109.5309,23.69,24.72,14.37,0,111.1,13.12,24.52,211.1
"2009-05-21 00:50:30",904734,3.679,246.1,2.126,0.121,20.33,109.5087,23.63,24.65,14.49,0,111.1,13.12,24.47,208.1
"2009-05-21 00:51:00",904735,4.082,237.9,6.141,0.294,20.29,109.4905,23.59,24.61,14.77,0,111.1,13.12,24.42,199.9
"2009-05-21 00:51:30",904736,2.276,231.1,11.57,0.579,19.68,109.4477,23.48,24.56,17.78,0,111.1,13.12,24.31,193.1
"2009-05-21 00:52:00",904737,2.474,251.1,23.05,0.304,19.74,109.4061,23.37,24.48,18.54,0,111.1,13.12,24.20,213.1
"2009-05-21 00:52:30",904738,1.076,242.2,36.35,0.647,19.81,109.399,23.35,24.42,18.37,0,111.1,13.13,24.18,204.2
"2009-05-21 00:53:00",904739,1.218,9.23,38.43,0.299,19.81,109.3984,23.35,24.39,18.4,0,111.1,13.13,24.18,331.2
"2009-05-21 00:53:30",904740,4.414,66.98,11.97,1.171,19.85,109.398,23.35,24.37,18.52,0,111.1,13.13,24.18,29.0
"2009-05-21 00:54:00",904741,4.758,35.15,9.86,0.837,20.02,109.3783,23.3,24.34,18.22,0,111.1,13.13,24.13,357.1
"2009-05-21 00:54:30",904742,4.039,21.1,5.857,0.688,19.84,109.3705,23.28,24.32,18.77,0,111.1,13.13,24.11,343.1
"2009-05-21 00:55:00",904743,4.3,36.12,4.685,0.533,19.86,109.3666,23.27,24.31,19.01,0,111.1,13.13,24.10,358.1
"2009-05-21 00:55:30",904744,4.508,36.26,5.254,0.573,19.96,109.3666,23.27,24.28,18.86,0,111.1,13.13,24.10,358.3
"2009-05-21 00:56:00",904745,3.199,40.01,7.513,0.542,20.12,109.3506,23.23,24.27,18.89,0,111.1,13.13,24.06,2.0
"2009-05-21 00:56:30",904746,3.041,35.81,5.199,0.632,20.59,109.3377,23.19,24.25,16.84,0,111.1,13.13,24.03,357.8
"2009-05-21 00:57:00",904747,2.458,33.11,4.278,0.257,20.51,109.3329,23.18,24.23,16.43,0,111.1,13.13,24.01,355.1
"2009-05-21 00:57:30",904748,1.619,26.55,10.09,0.517,20.39,109.3329,23.18,24.2,16.58,0,111.1,13.13,24.01,348.5
"2009-05-21 00:58:00",904749,2.51,45.57,10.21,0.26,20.24,109.3298,23.17,24.19,17.14,0,111.1,13.13,24.01,7.6
"2009-05-21 00:58:30",904750,2.898,26.16,9.87,0.678,19.9,109.3152,23.14,24.18,17.95,0,111.1,13.14,23.97,348.2
"2009-05-21 00:59:00",904751,3.782,46.41,11.75,0.815,20.03,109.3,23.1,24.16,18.24,0,111.1,13.14,23.93,8.4
"2009-05-21 00:59:30",904752,3.424,19.9,7.899,0.911,20,109.2983,23.09,24.14,18.32,0,111.1,13.14,23.92,341.9
"2009-05-21 01:00:00",904753,2.229,10.64,7.586,1.026,19.91,109.2939,23.08,24.13,18.83,0,111.1,13.14,23.91,332.6
"2009-05-21 01:00:30",904754,2.728,17.87,7.797,0.538,19.86,109.2829,23.05,24.11,19.23,0,111.1,13.14,23.88,339.9
"2009-05-21 01:01:00",904755,3.666,23.92,3.4,0.377,19.87,109.2697,23.02,24.1,19.34,0,111.1,13.14,23.85,345.9
"2009-05-21 01:01:30",904756,3.557,22.29,7.13,0.543,19.92,109.2673,23.01,24.08,19.27,0,111.1,13.14,23.84,344.3
"2009-05-21 01:02:00",904757,3.634,24.57,6.034,0.447,19.8,109.2719,23.02,24.07,19.48,0,111.1,13.14,23.86,346.6
"2009-05-21 01:02:30",904758,3.261,19.91,7.144,0.649,19.99,109.2715,23.02,24.06,19.44,0,111.1,13.14,23.86,341.9
"2009-05-21 01:03:00",904759,3.039,2.842,14.71,0.801,20.14,109.2635,23,24.05,19.1,0,111.1,13.14,23.83,324.8
"2009-05-21 01:03:30",904760,3.186,19.21,3.799,0.477,20.06,109.2572,22.99,24.04,18.88,0,111.1,13.14,23.82,341.2
"2009-05-21 01:04:00",904761,2.982,22.84,5.611,0.422,20.03,109.2588,22.99,24.02,18.98,0,111.1,13.14,23.82,344.8
"2009-05-21 01:04:30",904762,2.831,31.08,2.569,0.338,20.04,109.258,22.99,24,19.08,0,111.1,13.14,23.82,353.1
"2009-05-21 01:05:00",904763,3.226,32.3,3.972,0.337,20.03,109.2409,22.94,23.99,18.94,0,111.1,13.14,23.78,354.3
"2009-05-21 01:05:30",904764,3.11,29.81,6.386,0.485,19.91,109.2281,22.91,23.97,19.35,0,111.1,13.14,23.74,351.8
"2009-05-21 01:06:00",904765,2.833,32.04,6.483,0.673,19.96,109.2306,22.92,23.95,19.55,0,111.1,13.14,23.75,354.0
"2009-05-21 01:06:30",904766,2.25,7.898,12.86,0.184,20.09,109.2224,22.9,23.94,19.34,0,111.1,13.14,23.73,329.9
"2009-05-21 01:07:00",904767,2.477,8.91,7.022,0.443,20.23,109.2067,22.86,23.92,18.86,0,111.1,13.14,23.69,330.9
"2009-05-21 01:07:30",904768,2.381,11.6,3.94,0.617,20.24,109.2009,22.84,23.9,18.58,0,111.1,13.14,23.67,333.6
"2009-05-21 01:08:00",904769,3.299,8.32,5.313,0.327,20.26,109.2012,22.84,23.88,18.39,0,111.1,13.14,23.67,330.3
"2009-05-21 01:08:30",904770,2.823,18.74,5.892,0.651,20.24,109.1962,22.83,23.86,18.3,0,111.1,13.14,23.66,340.7
"2009-05-21 01:09:00",904771,2.662,23.67,4.352,0.436,20.11,109.1759,22.78,23.85,18.61,0,111,13.15,23.61,345.7
"2009-05-21 01:09:30",904772,3.094,3.651,8.42,0.263,20.21,109.1681,22.76,23.83,18.57,0,111,13.15,23.59,325.7
"2009-05-21 01:10:00",904773,3.054,6.664,7.577,0.402,20.24,109.1675,22.76,23.82,18.41,0,111,13.15,23.59,328.7
"2009-05-21 01:10:30",904774,3.236,22.28,7.162,0.3,20.27,109.165,22.75,23.8,18.34,0,111,13.15,23.58,344.3
"2009-05-21 01:11:00",904775,3.144,26.11,6.091,0.41,20.24,109.1456,22.7,23.79,18.25,0,111,13.15,23.53,348.1
"2009-05-21 01:11:30",904776,2.189,17.13,20.68,0.604,20.26,109.1366,22.68,23.77,18.36,0,111,13.15,23.51,339.1
"2009-05-21 01:12:00",904777,1.749,6.412,16.66,0.436,20.31,109.1338,22.67,23.75,18.07,0,111,13.15,23.50,328.4
"2009-05-21 01:12:30",904778,1.364,19.06,15.93,0.23,20.29,109.1327,22.67,23.75,18.06,0,111,13.15,23.50,341.1
"2009-05-21 01:13:00",904779,1.99,31.27,6.641,0.929,20.3,109.1248,22.65,23.73,18.15,0,111,13.15,23.48,353.3
"2009-05-21 01:13:30",904780,1.889,37.38,12.67,0.322,20.26,109.1113,22.61,23.7,18.06,0,111,13.15,23.44,359.4
"2009-05-21 01:14:00",904781,1.561,43.55,10.38,0.39,20.23,109.1089,22.61,23.7,18.32,0,111,13.15,23.44,5.5
"2009-05-21 01:14:30",904782,1.562,56.36,12.29,0.281,20.3,109.104,22.59,23.69,18.22,0,111,13.16,23.42,18.4
"2009-05-21 01:15:00",904783,1.834,27.2,9.01,0.338,20.34,109.1102,22.61,23.68,18.1,0,111,13.16,23.44,349.2
"2009-05-21 01:15:30",904784,2.477,41.96,7.027,0.591,20.13,109.1219,22.64,23.68,18.34,0,111,13.16,23.47,4.0
"2009-05-21 01:16:00",904785,2.091,5.321,10.08,0.938,20.37,109.125,22.65,23.66,18.29,0,111,13.16,23.48,327.3
"2009-05-21 01:16:30",904786,1.128,20.15,27.86,0.58,20.41,109.1208,22.64,23.65,17.95,0,111,13.16,23.47,342.1
"2009-05-21 01:17:00",904787,2.713,350.9,10.79,0.526,20.52,109.1069,22.6,23.64,17.79,0,111,13.16,23.43,312.9
"2009-05-21 01:17:30",904788,2.08,6.513,13.67,0.696,20.18,109.1024,22.59,23.62,18.27,0,111,13.16,23.42,328.5
"2009-05-21 01:18:00",904789,2.158,18.8,11.99,0.711,20.34,109.0985,22.58,23.62,18.38,0,111,13.16,23.41,340.8
"2009-05-21 01:18:30",904790,1.666,25.41,16.25,0.605,20.31,109.0946,22.57,23.6,18.23,0,111,13.16,23.40,347.4
"2009-05-21 01:19:00",904791,2.131,15.35,10.05,0.298,20.39,109.097,22.58,23.61,18.23,0,111,13.16,23.41,337.4
"2009-05-21 01:19:30",904792,0.777,5.85,16.63,0.443,20.44,109.1004,22.58,23.6,17.96,0,111,13.16,23.41,327.9
"2009-05-21 01:20:00",904793,1.147,352.9,9.49,0.321,20.53,109.1014,22.59,23.58,17.75,0,111,13.16,23.42,314.9
"2009-05-21 01:20:30",904794,1.385,14.38,22.89,0.509,20.27,109.1032,22.59,23.58,17.57,0,111,13.16,23.42,336.4
"2009-05-21 01:21:00",904795,1.466,18.44,23.27,0.821,20.15,109.1023,22.59,23.58,18.67,0,111,13.16,23.42,340.4
"2009-05-21 01:21:30",904796,1.134,353.9,25.63,0.336,20.22,109.0998,22.58,23.56,18.96,0,111,13.16,23.41,315.9
"2009-05-21 01:22:00",904797,0.994,341.5,16.32,0.315,20.53,109.0933,22.57,23.58,18.34,0,111,13.15,23.40,303.5
"2009-05-21 01:22:30",904798,1.344,2.958,16.59,0.383,20.38,109.0846,22.54,23.55,17.94,0,111,13.15,23.37,325.0
"2009-05-21 01:23:00",904799,1.082,11.95,18.02,0.378,20.23,109.0745,22.52,23.55,18.43,0,111,13.15,23.35,334.0
"2009-05-21 01:23:30",904800,1.43,22.67,11.85,0.25,20.23,109.0695,22.5,23.53,18.55,0,111,13.16,23.34,344.7
"2009-05-21 01:24:00",904801,2,28.74,5.236,0.505,20.2,109.0695,22.5,23.53,18.77,0,111,13.15,23.34,350.7
"2009-05-21 01:24:30",904802,1.911,34.97,9.8,0.344,20.24,109.0695,22.5,23.52,18.82,0,111,13.16,23.34,357.0
"2009-05-21 01:25:00",904803,1.632,35.28,7.224,0.147,20.24,109.0675,22.5,23.51,18.75,0,111,13.16,23.33,357.3
"2009-05-21 01:25:30",904804,1.607,25.68,3.948,0.252,20.28,109.0521,22.46,23.5,18.66,0,111,13.16,23.29,347.7
"2009-05-21 01:26:00",904805,1.599,15.06,3.5,0.263,20.29,109.0432,22.44,23.51,18.65,0,111,13.16,23.27,337.1
"2009-05-21 01:26:30",904806,1.472,5.16,4.911,0.248,20.31,109.0385,22.42,23.49,18.58,0,111,13.16,23.26,327.2
"2009-05-21 01:27:00",904807,1.677,22.43,5.563,0.211,20.33,109.0388,22.43,23.5,18.45,0,111,13.16,23.26,344.4
"2009-05-21 01:27:30",904808,1.422,23.01,6.322,0.101,20.39,109.0403,22.43,23.47,18.47,0,111,13.16,23.26,345.0
"2009-05-21 01:28:00",904809,1.553,15.01,5.23,0.225,20.42,109.0394,22.43,23.47,18.36,0,111,13.16,23.26,337.0
"2009-05-21 01:28:30",904810,1.529,28.95,6.732,0.287,20.4,109.0303,22.4,23.46,18.32,0,111,13.17,23.23,351.0
"2009-05-21 01:29:00",904811,0.938,352.5,11.08,0.205,20.46,109.0217,22.38,23.45,18.25,0,111,13.17,23.21,314.5
"2009-05-21 01:29:30",904812,0.737,353.9,8.89,0.151,20.45,109.0229,22.38,23.43,18.17,0,111,13.17,23.21,315.9
"2009-05-21 01:30:00",904813,1.252,34.36,6.749,0.511,20.37,109.0253,22.39,23.42,18.22,0,110.9,13.17,23.22,356.4
"2009-05-21 01:30:30",904814,1.555,39.28,5.905,0.389,20.4,109.0232,22.39,23.4,18.48,0,110.9,13.17,23.22,1.3
"2009-05-21 01:31:00",904815,1.169,22.3,16.76,0.27,20.37,109.0115,22.36,23.4,18.29,0,110.9,13.17,23.19,344.3
"2009-05-21 01:31:30",904816,0.994,53.48,11.93,0.313,20.34,109.0021,22.33,23.38,18.5,0,110.9,13.17,23.16,15.5
"2009-05-21 01:32:00",904817,0.885,26.27,21.89,0.329,20.43,108.9965,22.32,23.38,18.44,0,110.9,13.17,23.15,348.3
"2009-05-21 01:32:30",904818,0.224,3.383,48.07,0.28,20.5,108.9965,22.32,23.35,18.21,0,110.9,13.17,23.15,325.4
"2009-05-21 01:33:00",904819,1.179,344.7,33.49,0.799,20.4,108.998,22.32,23.35,18.16,0,110.9,13.17,23.15,306.7
"2009-05-21 01:33:30",904820,1.307,295.8,29.59,0.444,20.39,108.9968,22.32,23.33,18.25,0,110.9,13.17,23.15,257.8
"2009-05-21 01:34:00",904821,1.122,303.6,10.99,0.333,20.48,108.9837,22.28,23.33,18.18,0,110.9,13.17,23.11,265.6
"2009-05-21 01:34:30",904822,1.493,303,3.687,0.193,20.52,108.9739,22.26,23.31,17.89,0,110.9,13.17,23.09,265.0
"2009-05-21 01:35:00",904823,1.432,307.9,4.03,0.106,20.52,108.9713,22.25,23.3,17.81,0,110.9,13.17,23.08,269.9
"2009-05-21 01:35:30",904824,1.451,315.6,5.362,0.127,20.47,108.9713,22.25,23.28,17.8,0,110.9,13.17,23.08,277.6
"2009-05-21 01:36:00",904825,1.348,319.2,3.036,0.062,20.37,108.971,22.25,23.27,17.84,0,110.9,13.18,23.08,281.2
"2009-05-21 01:36:30",904826,1.339,321.3,2.923,0.175,20.36,108.9632,22.23,23.26,17.93,0,110.9,13.18,23.06,283.3
"2009-05-21 01:37:00",904827,1.093,327.5,7.435,0.182,20.3,108.9502,22.2,23.26,18.12,0,110.9,13.18,23.03,289.5
"2009-05-21 01:37:30",904828,1.514,321.5,6.388,0.178,20.41,108.939,22.17,23.25,18.29,0,110.9,13.18,23.00,283.5
"2009-05-21 01:38:00",904829,1.49,339.1,6.929,0.167,20.35,108.9376,22.17,23.23,18.25,0,110.9,13.17,23.00,301.1
"2009-05-21 01:38:30",904830,1.199,357.8,7.638,0.239,20.27,108.9376,22.17,23.23,18.54,0,110.9,13.17,23.00,319.8
"2009-05-21 01:39:00",904831,1.185,7.694,15.24,0.247,20.31,108.9376,22.17,23.21,18.65,0,110.9,13.17,23.00,329.7
"2009-05-21 01:39:30",904832,1,353.8,15.59,0.635,20.34,108.937,22.16,23.2,18.67,0,110.9,13.17,22.99,315.8
"2009-05-21 01:40:00",904833,1.382,351,11.04,0.328,20.29,108.9331,22.15,23.19,18.83,0,110.9,13.17,22.98,313.0
"2009-05-21 01:40:30",904834,1.653,352.7,11.03,0.571,20.21,108.9207,22.12,23.21,18.98,0,110.9,13.17,22.95,314.7
"2009-05-21 01:41:00",904835,0.952,11.1,12.83,0.372,20.27,108.9135,22.1,23.18,19.37,0,110.9,13.17,22.93,333.1
"2009-05-21 01:41:30",904836,0.86,10.2,13.11,0.279,20.32,108.9081,22.09,23.18,19.09,0,110.9,13.17,22.92,332.2
"2009-05-21 01:42:00",904837,0.896,349.4,10.93,0.301,20.36,108.9054,22.08,23.17,18.87,0,110.9,13.17,22.91,311.4
"2009-05-21 01:42:30",904838,0.873,2.655,16.71,0.208,20.29,108.9042,22.08,23.17,18.79,0,110.9,13.17,22.91,324.7
"2009-05-21 01:43:00",904839,0.808,21.03,6.56,0.186,20.34,108.906,22.08,23.16,18.9,0,110.9,13.18,22.91,343.0
"2009-05-21 01:43:30",904840,0.313,21.67,11.9,0.209,20.29,108.9072,22.09,23.15,18.88,0,110.9,13.18,22.92,343.7
"2009-05-21 01:44:00",904841,1.606,48.33,8.7,0.614,20.37,108.9097,22.09,23.14,18.9,0,110.9,13.18,22.92,10.3
"2009-05-21 01:44:30",904842,1.876,56.71,5.339,0.408,20.38,108.9111,22.1,23.14,18.76,0,110.9,13.18,22.93,18.7
"2009-05-21 01:45:00",904843,2.163,55.04,6.143,0.266,20.3,108.9029,22.08,23.12,19.08,0,110.9,13.18,22.91,17.0
"2009-05-21 01:45:30",904844,1.834,71.8,3.318,0.164,20.33,108.8988,22.07,23.13,19.08,0,110.9,13.18,22.90,33.8
"2009-05-21 01:46:00",904845,1.693,69.88,8.83,0.186,20.3,108.8966,22.06,23.11,19.2,0,110.9,13.18,22.89,31.9
"2009-05-21 01:46:30",904846,1.926,55.99,7.52,0.376,20.25,108.8962,22.06,23.11,19.22,0,110.9,13.18,22.89,18.0
"2009-05-21 01:47:00",904847,2.216,55.24,4.06,0.177,20.22,108.8977,22.06,23.1,19.45,0,110.9,13.18,22.89,17.2
"2009-05-21 01:47:30",904848,2.408,48.81,3.257,0.148,20.23,108.8977,22.06,23.08,19.57,0,110.9,13.18,22.89,10.8
"2009-05-21 01:48:00",904849,2.604,46.75,8.33,0.212,20.31,108.8977,22.06,23.08,19.56,0,110.9,13.18,22.89,8.8